Tracking 18852 objects as of 23-Nov-2017
HD Live streaming from Space Station
objects crossing your sky now

COSMOS 2179 (GLONASS)

Track COSMOS 2179 (GLONASS) now!
COSMOS 2179 (GLONASS) is classified as:


NORAD ID: 21855
Int'l Code: 1992-005C
Perigee: 19,116.0 km
Apogee: 19,157.9 km
Inclination: 64.0 °
Period: 675.7 minutes
Semi major axis: 25507 km
RCS: 3.1028 m2 (large)
Launch date: January 29, 1992
Source: Commonwealth of Independent States (former USSR) (CIS)
Launch site: TYURATAM MISSILE AND SPACE COMPLEX (TTMTR)
SV:
aabbcc
Your satellite tracking list
Your tracking list is empty




NASA's NSSDC Master Catalog

Two Line Element Set (TLE):
1 21855U 92005C   17326.42868192  .00000059  00000-0  00000+0 0  9999
2 21855  64.0374 177.7951 0008199 220.8191 224.7266  2.13102991200913
Source of the keplerian elements: AFSPC